Location: Colossi of Memnon
(25.7167°N, 32.6167°E)
Time: 17:35:58
(UTC+00:00)

N. Korean satellite - Pass Details

Date: 26 September 2021
Orbit: 450 x 495 km, 97.3° (Epoch: 15 October)

Event Time Altitude Azimuth Distance (km) Brightness Sun altitude
Rises 03:07:13 0° 5° (N) 2,534 10.3 -8.2°
Reaches altitude 10° 03:09:17 10° 2° (N) 1,660 9.3 -7.7°
Maximum altitude 03:12:48 58° 282° (WNW) 572 6.6 -6.9°
Drops below altitude 10° 03:16:20 10° 203° (SSW) 1,673 9.0 -6.1°
Sets 03:18:26 0° 199° (SSW) 2,557 10.0 -5.6°
